Powrót do katalogu

COSMOS 2251 DEB

AktywnyLEO
NORAD 34554·DEBRIS·🇷🇺 Russia

Wystrzelony Jun 16, 1993 z Plesetsk Cosmodrome

Loading…

Następne Przeloty (najbliższe 24 godziny)

TLE

ŚwieżeSource: Space-Track

Epoka: Sep 14, 2026, 12:22 UTC

1 34554U 93036UQ  26257.51545068  .00000425  00000-0  14779-3 0  9990
2 34554  74.0387 150.9986 0023027 152.6733 266.1726 14.38363032917203

Śledź COSMOS 2251 DEB w czasie rzeczywistym z AllMySat

Download on the App Store